User: anonymous   Login
Location: Arbon
(43.0005°N, 0.7472°E)
Time: 20:28:43
(UTC+00:00)
Language:

Cosmos 1072 Rocket - Orbit

View from above orbital plane
View from above orbital plane
View from above satellite
View from above satellite

Ground track
Ground track

The orbit data is extracted from the following two-line orbital elements,

1 11239U 79003B   20304.25417722 -.00000015 +00000-0 -31367-4 0  9996
2 11239 082.9375 254.7556 0040314 192.2947 277.2171 13.75842082096880
Epoch (UTC): 30 October 2020 06:06:00
Eccentricity: 0.0040314
inclination: 82.9375°
perigee height: 949 km
apogee height: 1008 km
right ascension of ascending node: 254.7556°
argument of perigee: 192.2947°
revolutions per day: 13.75842082
mean anomaly at epoch: 277.2171°
orbit number at epoch: 9688

The dashed part of the orbit path shows where the satellite is in the earth's shadow,  

DLR